Weather Roundup
Issued by NWS

Home | Current Version | Previous Version | Graphics & Text | Print | Product List | Glossary Off
Versions: 1 2 3 4 5 6 7 8 9 10 11 12 13 14 15 16 17 18 19 20 21 22 23 24 25 26 27 28 29 30 31 32 33 34 35 36 37 38 39 40 41 42 43 44 45 46 47 48 49 50

528
NZUS93 KARX 171159
HRRWXR

CURRENT HOURLY OBSERVATIONS ACROSS
MUCH OF THE UPPER MISSISSIPPI VALLEY
NATIONAL WEATHER SERVICE LA CROSSE WI
600 AM CST TUE JAN 17 2017


...SOUTHEAST MINNESOTA...


CITY           SKY/WX    TMP DP  RH WIND       PRES   REMARKS
ROCHESTER      MIX PCPN  32  32 100 N7        29.87S FOG     WCI  26
ROCHESTER/MAYO CLOUDY    32  32 100 CALM      29.88S
WINONA         CLOUDY    34  32  93 NW6       29.89R FOG     WCI  29
AUSTIN         CLOUDY    30  28  93 NW3       29.89R FOG
ALBERT LEA     CLOUDY    30  30 100 NW3       29.91R FOG
DODGE CENTER   CLOUDY    30  30 100 CALM      29.88R FOG
PRESTON        CLOUDY    31  31  97 N5        29.87S FOG     WCI  27
OWATONNA       CLOUDY    30  28  93 NW3       29.91R FOG
FARIBAULT      MIX PCPN  30  30 100 NW5       29.92R WCI  25
$$

...ELSEWHERE IN MINNESOTA...


CITY           SKY/WX    TMP DP  RH WIND       PRES   REMARKS
MINNEAPOLIS    FRZ DRZL  31  28  89 N6        29.93S WCI  25
INTNL FALLS    CLOUDY    -5 -10  79 CALM      29.94S
DULUTH         CLOUDY    17  13  84 CALM      29.92F FOG
RED WING       MIX PCPN  34  32  93 CALM      29.90S
REDWOOD FALLS  CLOUDY    23  21  92 NW10      29.98S FOG     WCI  12
MANKATO        CLEAR     29  28  96 NW9       29.95R FOG     WCI  20
WORTHINGTON    NOT AVBL
FAIRMONT       FOG       29  28  96 NW15      29.96R VSB 1/2 WCI  18
$$

...SOUTHWEST WISCONSIN...


CITY           SKY/WX    TMP DP  RH WIND       PRES   REMARKS
LA CROSSE      CLOUDY    36  33  89 N3        29.87R FOG
PRAIRIE DU CHI FOG       33  32  96 W3        29.86S VSB 3/4
BOSCOBEL       FOG       34  33  96 W3        29.85S VSB 1
LONE ROCK      NOT AVBL
PLATTEVILLE    CLOUDY    33  33 100 N6        29.82S VSB 1/2 WCI  28
FORT MC COY    CLOUDY    32  32 100 N3        29.86S FOG
MAUSTON-NEW LI CLOUDY    33  32  99 CALM      29.84R FOG
VIROQUA        CLOUDY    32  32 100 CALM      29.83R VSB 3/4
WIS DELLS      FOG       32  32 100 N5        29.82R VSB 1   WCI  27
$$

...ELSEWHERE IN WISCONSIN...


CITY           SKY/WX    TMP DP  RH WIND       PRES   REMARKS
MILWAUKEE      FOG       37  36  96 N7        29.77R VSB 1/2 WCI  32
MADISON        CLOUDY    33  33 100 N6        29.82R FOG     WCI  28
GREEN BAY      CLOUDY    35  34  96 NE17      29.83F FOG     WCI  25
EAU CLAIRE     MIX PCPN  33  32  96 N6        29.88S FOG     WCI  28
BLACK RVR FLS  CLOUDY    33  33 100 N3        29.86R FOG
MEDFORD        MIX PCPN  32  32  98 NE5       29.85S WCI  28
WAUSAU         CLOUDY    33  32  96 N3        29.84S FOG
WIS RAPIDS       N/A     33  33 100 NE3       29.85S
MARSHFIELD     CLOUDY    33  31  92 NE6       29.83S FOG     WCI  28
RICE LAKE      MIX PCPN  33  32  96 N6        29.92S WCI  28
$$

...NORTHEAST IOWA...


CITY           SKY/WX    TMP DP  RH WIND       PRES   REMARKS
WATERLOO       CLOUDY    33  31  92 NW9       29.89R FOG     WCI  25
DUBUQUE        FOG       32  32 100 NW6       29.82F VSB 1/4 WCI  26
DECORAH        FOG       32  32 100 NW3       29.85R VSB 1/4
MASON CITY     CLOUDY    31  30  96 N13       29.91S FOG     WCI  21
CHARLES CITY   CLOUDY    34  34 100 MISG      29.89R FOG
OELWEIN        CLOUDY    32  32 100 NW10      29.87S FOG     WCI  24
$$

...ELSEWHERE IN IOWA...


CITY           SKY/WX    TMP DP  RH WIND       PRES   REMARKS
DES MOINES     DRIZZLE   34  33  96 NW9       29.95R FOG     WCI  27
IOWA CITY      CLOUDY    35  33  92 W6        29.89R WCI  30
FORT DODGE     CLOUDY    32  28  86 CALM      29.95R
MARSHALLTOWN   CLOUDY    33  33 100 NW9       29.90R FOG     WCI  25
CEDAR RAPIDS   CLOUDY    32  32 100 NW10      29.86R FOG     WCI  24
$$

...NORTHERN ILLINOIS...


CITY           SKY/WX    TMP DP  RH WIND       PRES   REMARKS
CHICAGO-OHARE  DRZL/FOG  37  37 100 W7        29.76R VSB 1   WCI  32
CHICAGO-MIDWAY CLOUDY    38  38 100 W13       29.77R FOG     WCI  30
MOLINE         FOG       35  34  96 W9        29.85R VSB 1/2 WCI  28
ROCKFORD       DRZL/FOG  35  34  96 NW7       29.82R VSB 1   WCI  29
PEORIA         CLOUDY    41  41 100 W10       29.88R FOG
$$

NOTE: "FAIR" INDICATES FEW OR NO CLOUDS BELOW 12,000 FEET WITH NO
SIGNIFICANT WEATHER AND/OR OBSTRUCTIONS TO VISIBILITY. WIND
SPEEDS ARE IN MILES-PER-HOUR.




USA.gov is the U.S. government's official web portal to all federal, state and local government web resources and services.